User: anonymous   Login
Location: St. Malo Provincial Park
(49.3214°N, 96.9305°W)
Time: 00:35:11
(UTC-06:00)
Language:

Iridium 6 - Orbit

View from above orbital plane
View from above orbital plane
View from above satellite
View from above satellite

Ground track
Ground track

The orbit data is extracted from the following two-line orbital elements,

1 24794U 97020C   17324.35383595  .00000021  00000-0  27208-6 0  9990
2 24794  86.3977 253.5806 0001648  86.4944 273.6444 14.42026304 75571
Epoch (UTC): 20 November 2017 08:29:31
Eccentricity: 0.0001648
inclination: 86.3977°
perigee height: 750 km
apogee height: 753 km
right ascension of ascending node: 253.5806°
argument of perigee: 86.4944°
revolutions per day: 14.42026304
mean anomaly at epoch: 273.6444°
orbit number at epoch: 7557

The dashed part of the orbit path shows where the satellite is in the earth's shadow,  

DLR